FW6456 Weather Reports


Display with metric or nautical units.
time (UTC)temp
F
wind
direction
speed
MPH
gust
MPH
rain 1hr
in
rain 24hr
in
rain mn
in
humidity
%
barometer
mb
20260506160742 58 46 1.0 2.0 0.00 0.39 0.39 75 3406.9
20260506160238 58 135 1.0 2.0 0.00 0.39 0.39 76 3407.2
20260506155737 58 116 0.0 2.0 0.00 0.39 0.39 76 3407.0
20260506155233 58 114 0.0 2.0 0.00 0.39 0.39 77 3406.9
20260506153341 56 72 0.0 2.0 0.00 0.39 0.39 77 3407.0
20260506152837 56 20 0.0 0.0 0.00 0.39 0.39 77 3406.8
20260506152335 55 34 1.0 2.0 0.00 0.39 0.39 78 3406.7
20260506151833 55 335 4.0 5.0 0.00 0.39 0.39 78 3407.0
20260506151329 55 295 1.0 3.0 0.00 0.39 0.39 80 3407.0
20260506150827 55 116 0.0 2.0 0.00 0.39 0.39 81 3406.8
20260506150324 56 124 0.0 0.0 0.00 0.39 0.39 83 3406.8
20260506145820 55 84 0.0 0.0 0.00 0.39 0.39 83 3406.7
20260506145316 55 89 0.0 0.0 0.00 0.39 0.39 84 3406.6
20260506144814 54 89 0.0 0.0 0.00 0.39 0.39 83 3406.5
20260506144311 54 76 0.0 0.0 0.00 0.39 0.39 84 3406.4
20260506143809 52 94 0.0 2.0 0.00 0.39 0.39 87 3406.1
20260506143306 52 83 0.0 2.0 0.00 0.39 0.39 89 3405.8
20260506142804 51 139 3.0 3.0 0.00 0.39 0.39 94 3406.1
20260506142302 50 168 5.0 7.0 0.00 0.39 0.39 98 3406.1
20260506141800 49 141 2.0 3.0 0.00 0.39 0.39 99 3406.0
20260506141258 49 83 0.0 0.0 0.00 0.39 0.39 99 3405.8
20260506140755 50 179 3.0 5.0 0.00 0.39 0.39 99 3405.5
20260506140252 50 76 0.0 0.0 0.00 0.39 0.39 99 3405.5
20260506135749 50 142 1.0 2.0 0.00 0.39 0.39 99 3405.4
20260506135245 50 86 0.0 0.0 0.00 0.39 0.39 99 3405.6
20260506134742 50 69 0.0 2.0 0.00 0.39 0.39 99 3405.5
20260506134238 50 280 2.0 3.0 0.00 0.39 0.39 99 3405.5
20260506133736 50 275 3.0 3.0 0.00 0.39 0.39 99 3405.6
20260506133232 50 20 1.0 2.0 0.00 0.39 0.39 99 3405.6
20260506132729 50 102 0.0 0.0 0.00 0.39 0.39 99 3405.6
20260506132226 49 82 0.0 0.0 0.00 0.39 0.39 99 3405.6
20260506131724 49 111 0.0 0.0 0.00 0.39 0.39 99 3405.5
20260506131220 49 327 1.0 2.0 0.00 0.39 0.39 99 3405.6
20260506130717 49 338 2.0 5.0 0.00 0.39 0.39 99 3405.7
20260506130214 49 41 1.0 2.0 0.00 0.39 0.39 99 3405.7
20260506125712 49 22 1.0 2.0 0.00 0.39 0.39 99 3405.6
20260506125209 49 64 0.0 0.0 0.00 0.39 0.39 99 3405.3
20260506124707 49 54 0.0 0.0 0.00 0.39 0.39 99 3405.6
20260506124205 49 74 0.0 0.0 0.00 0.39 0.39 99 3405.3
20260506123702 49 79 0.0 0.0 0.00 0.39 0.39 99 3405.5
20260506123201 49 83 0.0 0.0 0.00 0.39 0.39 99 3405.2
20260506122657 49 30 1.0 2.0 0.00 0.39 0.39 99 3405.2
20260506122155 49 65 0.0 2.0 0.00 0.39 0.39 99 3405.2
20260506121652 49 350 2.0 3.0 0.00 0.39 0.39 99 3405.1
20260506121148 49 39 1.0 2.0 0.00 0.39 0.39 99 3405.0
20260506120647 49 289 2.0 3.0 0.00 0.39 0.39 99 3404.9
20260506120144 49 37 2.0 3.0 0.00 0.39 0.39 99 3404.9
20260506115642 49 62 1.0 2.0 0.00 0.39 0.39 99 3404.9
20260506115140 49 8 2.0 3.0 0.00 0.39 0.39 99 3404.8
20260506114637 49 72 0.0 0.0 0.00 0.39 0.39 99 3404.4
20260506114135 49 81 0.0 0.0 0.00 0.39 0.39 99 3404.3
20260506113633 49 268 0.0 0.0 0.00 0.39 0.39 99 3404.2
20260506113130 49 105 0.0 0.0 0.00 0.39 0.39 99 3404.2
20260506112626 49 53 0.0 0.0 0.00 0.39 0.39 99 3404.4
20260506112124 49 66 0.0 0.0 0.00 0.39 0.39 99 3404.1
20260506111621 49 11 2.0 3.0 0.00 0.39 0.39 99 3404.3
20260506111119 49 345 2.0 3.0 0.00 0.39 0.39 99 3404.4
20260506110616 50 67 0.0 0.0 0.00 0.39 0.39 99 3404.4
20260506110114 50 41 1.0 2.0 0.00 0.39 0.39 99 3404.3
20260506105610 50 16 1.0 2.0 0.00 0.39 0.39 99 3404.4
20260506105107 49 48 0.0 0.0 0.00 0.39 0.39 99 3404.1
20260506104605 49 271 1.0 2.0 0.00 0.39 0.39 99 3403.9
20260506104102 49 68 0.0 0.0 0.00 0.39 0.39 99 3403.7
20260506103559 49 10 1.0 2.0 0.00 0.39 0.39 99 3403.6
20260506103056 49 260 2.0 3.0 0.00 0.39 0.39 99 3403.6
20260506102554 49 11 1.0 2.0 0.00 0.39 0.39 99 3403.3
20260506102052 49 32 1.0 2.0 0.00 0.39 0.39 99 3403.7
20260506101548 50 328 1.0 2.0 0.00 0.39 0.39 99 3403.2
20260506101045 50 48 0.0 2.0 0.00 0.39 0.39 99 3402.8
20260506100544 50 105 0.0 0.0 0.00 0.39 0.39 99 3403.1
20260506100041 49 42 1.0 2.0 0.00 0.39 0.39 99 3402.8
20260506095540 49 59 1.0 2.0 0.00 0.39 0.39 99 3402.9
20260506095036 49 346 1.0 3.0 0.00 0.39 0.39 99 3403.1
20260506094534 49 96 1.0 2.0 0.00 0.39 0.39 99 3402.9
20260506094031 49 32 0.0 2.0 0.00 0.39 0.39 99 3402.9
20260506093530 50 94 0.0 0.0 0.00 0.39 0.39 99 3402.8
20260506093027 49 88 0.0 0.0 0.00 0.39 0.39 99 3402.7
20260506092525 49 31 2.0 3.0 0.00 0.39 0.39 99 3403.0
20260506092021 49 78 0.0 0.0 0.00 0.39 0.39 99 3402.7
20260506091520 49 58 1.0 2.0 0.00 0.39 0.39 99 3402.9
20260506091016 49 45 1.0 2.0 0.00 0.39 0.39 99 3402.8
20260506090514 49 288 1.0 2.0 0.00 0.39 0.39 99 3402.6
20260506090010 49 76 0.0 0.0 0.00 0.39 0.39 99 3402.8
20260506085507 49 312 2.0 3.0 0.00 0.39 0.39 99 3402.6
20260506085003 49 51 0.0 0.0 0.00 0.39 0.39 99 3402.3
20260506084500 49 352 1.0 2.0 0.00 0.39 0.39 99 3402.4
20260506083956 49 259 3.0 3.0 0.00 0.39 0.39 99 3402.7
20260506083454 49 72 0.0 0.0 0.00 0.39 0.39 99 3402.3
20260506082951 49 297 2.0 3.0 0.00 0.39 0.39 99 3402.6
20260506082448 50 327 3.0 3.0 0.00 0.39 0.39 99 3402.6
20260506081943 50 29 1.0 2.0 0.00 0.39 0.39 99 3402.7
20260506081442 50 135 0.0 0.0 0.00 0.39 0.39 99 3402.3
20260506080939 50 2 2.0 2.0 0.00 0.39 0.39 99 3402.3
20260506080436 50 325 3.0 5.0 0.00 0.39 0.39 99 3402.6
20260506073420 45 111 1.0 2.0 0.31 0.38 0.38 99 3401.2
20260506072917 50 208 3.0 5.0 0.35 0.36 0.36 99 3401.9
20260506072414 50 268 2.0 3.0 0.31 0.33 0.33 99 3401.9
20260506071912 50 20 1.0 2.0 0.17 0.30 0.30 99 3401.6
20260506071410 50 342 5.0 7.0 0.35 0.28 0.28 99 3401.5
20260506070906 50 107 0.0 0.0 0.42 0.27 0.27 99 3401.2
20260506070403 50 93 2.0 3.0 0.17 0.23 0.23 99 3401.1
20260506062340 51 42 0.0 0.0 0.38 0.16 0.16 99 3401.3
20260506061836 51 104 0.0 0.0 0.42 0.15 0.15 99 3401.1
20260506061333 51 24 4.0 5.0 0.24 0.11 0.11 99 3401.2
20260506060831 51 301 3.0 10.0 0.05 0.08 0.08 99 3401.0
20260506060329 51 162 0.0 0.0 0.00 0.07 0.07 99 3401.4
20260506051301 52 28 1.0 2.0 0.19 0.05 0.05 99 3401.0
20260506050759 52 29 1.0 2.0 0.24 0.03 0.03 99 3400.8
20260506050256 52 333 7.0 10.0 0.17 0.02 0.02 99 3400.6
20260506044747 53 59 0.0 2.0 0.00 0.51 0.51 99 3400.0
20260506044244 53 57 1.0 2.0 0.07 0.51 0.51 99 3400.1
20260506043741 54 290 4.0 5.0 0.26 0.51 0.51 99 3400.1
20260506043238 54 332 2.0 5.0 0.24 0.49 0.49 99 3400.2
20260506042737 55 25 2.0 2.0 0.24 0.47 0.47 99 3400.0
20260506042235 55 357 1.0 2.0 0.17 0.45 0.45 99 3399.9
20260506041733 55 40 3.0 3.0 0.19 0.44 0.44 99 3399.7
20260506041230 56 86 0.0 0.0 0.31 0.42 0.42 99 3399.7
20260506040728 57 311 5.0 8.0 0.61 0.40 0.40 99 3399.4
20260506040224 60 285 11.0 13.0 0.59 0.37 0.37 99 3399.5
20260506035721 61 300 4.0 5.0 0.71 0.34 0.34 99 3399.2
20260506035218 61 76 0.0 0.0 0.66 0.28 0.28 99 3399.3
20260506034715 61 71 0.0 0.0 0.47 0.22 0.22 99 3399.5
20260506034212 61 59 1.0 2.0 0.31 0.16 0.16 99 3399.1
20260506033710 61 2 2.0 3.0 0.19 0.14 0.14 99 3399.2
20260506033206 61 43 1.0 2.0 0.00 0.11 0.11 99 3398.9
20260506032703 61 56 1.0 2.0 0.00 0.11 0.11 99 3398.9
20260506032200 61 58 0.0 0.0 0.00 0.11 0.11 99 3398.7
20260506031651 61 58 0.0 0.0 0.24 0.11 0.11 99 3398.8
20260506031148 61 58 0.0 0.0 0.24 0.11 0.11 99 3398.9
20260506030647 61 57 0.0 0.0 0.00 0.07 0.07 99 3399.0
20260506030144 61 57 0.0 0.0 0.24 0.07 0.07 99 3398.9
20260506025640 61 57 0.0 0.0 0.24 0.07 0.07 99 3399.0
20260506025136 61 55 0.0 0.0 0.00 0.03 0.03 99 3399.2
20260506024634 61 55 0.0 0.0 0.00 0.03 0.03 99 3399.1
20260506024130 61 55 0.0 0.0 0.00 0.03 0.03 99 3399.2
20260506023626 61 55 0.0 0.0 0.00 0.03 0.03 99 3399.1
20260506023124 61 55 0.0 0.0 0.00 0.03 0.03 99 3399.1
20260506022621 61 55 0.0 0.0 0.00 0.03 0.03 99 3399.1
20260506022119 61 53 0.0 0.0 0.00 0.03 0.03 98 3399.1
20260506021616 61 22 1.0 2.0 0.00 0.03 0.03 99 3399.3
20260506021113 61 25 2.0 2.0 0.00 0.03 0.03 99 3399.2
20260506020610 61 79 0.0 0.0 0.00 0.03 0.03 99 3399.1
20260506020108 61 97 0.0 0.0 0.00 0.03 0.03 98 3398.8
20260506015605 61 73 0.0 0.0 0.00 0.03 0.03 98 3398.8
20260506015102 61 87 0.0 0.0 0.00 0.03 0.03 99 3399.0
20260506014600 61 87 0.0 0.0 0.00 0.03 0.03 99 3398.9
20260506014055 61 85 0.0 0.0 0.00 0.03 0.03 99 3399.1
20260506013553 61 124 0.0 2.0 0.00 0.03 0.03 99 3399.3
20260506013050 61 125 0.0 0.0 0.00 0.03 0.03 99 3399.3
20260506012546 61 108 0.0 2.0 0.00 0.03 0.03 99 3399.3
20260506012043 61 129 0.0 0.0 0.00 0.03 0.03 99 3399.5
20260506011541 61 113 0.0 0.0 0.00 0.03 0.03 99 3399.3
20260506011037 61 113 0.0 0.0 0.00 0.03 0.03 99 3399.5
20260506010536 61 107 0.0 0.0 0.00 0.03 0.03 99 3399.2
20260506010032 61 107 0.0 0.0 0.00 0.03 0.03 98 3399.2
20260506005529 61 116 0.0 0.0 0.00 0.03 0.03 98 3399.1
20260506005025 61 119 0.0 0.0 0.00 0.03 0.03 98 3399.0
20260506004523 61 123 2.0 3.0 0.00 0.03 0.03 98 3399.4
20260506004019 61 102 0.0 0.0 0.00 0.03 0.03 98 3399.4
20260506003516 61 111 0.0 0.0 0.07 0.03 0.03 97 3399.5
20260506003012 61 109 0.0 0.0 0.07 0.03 0.03 97 3399.6
20260506002508 62 91 0.0 0.0 0.00 0.02 0.02 96 3399.2
20260506002004 62 122 0.0 0.0 0.00 0.02 0.02 96 3400.2
20260506001500 62 139 0.0 2.0 0.00 0.02 0.02 96 3400.0
20260506000958 62 112 1.0 2.0 0.00 0.02 0.02 95 3399.8
20260506000455 62 126 1.0 2.0 0.00 0.02 0.02 95 3400.0
20260505235952 63 92 1.0 2.0 0.00 0.02 0.02 94 3399.9
20260505235451 63 96 0.0 0.0 0.00 0.02 0.02 94 3399.8
20260505234947 63 133 3.0 5.0 0.00 0.02 0.02 93 3400.1
20260505234444 64 182 3.0 3.0 0.00 0.02 0.02 91 3400.0
20260505233941 66 82 0.0 0.0 0.00 0.02 0.02 87 3400.2
20260505233439 67 163 6.0 7.0 0.00 0.02 0.02 83 3399.8
20260505232936 68 143 3.0 3.0 0.00 0.02 0.02 80 3399.9
20260505232434 68 204 3.0 5.0 0.00 0.02 0.02 78 3399.7
20260505231931 69 124 2.0 3.0 0.00 0.02 0.02 76 3399.9
20260505231428 69 161 2.0 3.0 0.00 0.02 0.02 76 3399.6
20260505230926 69 155 1.0 2.0 0.00 0.02 0.02 75 3399.6
20260505230423 70 183 3.0 3.0 0.00 0.02 0.02 74 3399.8
20260505225919 70 148 2.0 3.0 0.00 0.02 0.02 74 3399.5
20260505225417 70 125 1.0 2.0 0.00 0.02 0.02 74 3399.5
20260505224912 70 86 1.0 2.0 0.00 0.02 0.02 74 3399.6
20260505224410 70 124 0.0 2.0 0.00 0.02 0.02 76 3399.7
20260505223906 70 146 2.0 3.0 0.00 0.02 0.02 76 3399.6
20260505223403 70 237 2.0 3.0 0.00 0.02 0.02 79 3399.7
20260505222859 70 139 3.0 3.0 0.00 0.02 0.02 78 3399.6
20260505222356 70 128 0.0 2.0 0.00 0.02 0.02 78 3399.3
20260505221852 70 169 0.0 0.0 0.00 0.02 0.02 78 3399.4
20260505221349 70 120 1.0 2.0 0.00 0.02 0.02 78 3399.6
20260505220846 70 91 1.0 2.0 0.00 0.02 0.02 78 3399.5
20260505220343 70 123 1.0 2.0 0.00 0.02 0.02 78 3399.6
20260505215841 70 169 3.0 3.0 0.00 0.02 0.02 78 3399.6
20260505215339 70 262 5.0 5.0 0.00 0.02 0.02 79 3399.4
20260505214837 70 142 0.0 0.0 0.00 0.02 0.02 79 3399.5
20260505214334 70 81 0.0 2.0 0.00 0.02 0.02 79 3399.6
20260505213831 69 55 1.0 2.0 0.00 0.02 0.02 80 3399.6
20260505213329 70 117 0.0 0.0 0.00 0.02 0.02 80 3399.7
20260505212825 70 103 0.0 0.0 0.00 0.02 0.02 81 3399.9
20260505212322 69 138 1.0 2.0 0.00 0.02 0.02 81 3400.0
20260505211818 69 156 1.0 2.0 0.00 0.02 0.02 81 3400.0
20260505211316 69 124 2.0 3.0 0.00 0.02 0.02 82 3400.1
20260505210812 69 101 0.0 0.0 0.00 0.02 0.02 82 3400.2
20260505210309 69 132 2.0 3.0 0.00 0.02 0.02 82 3400.0
20260505205806 69 70 0.0 2.0 0.00 0.02 0.02 82 3399.8
20260505205305 70 66 1.0 3.0 0.00 0.02 0.02 80 3400.1
20260505204801 70 85 0.0 0.0 0.00 0.02 0.02 80 3399.9
20260505204259 71 156 5.0 7.0 0.00 0.02 0.02 78 3400.1
20260505203755 71 94 0.0 2.0 0.00 0.02 0.02 78 3400.0
20260505203253 71 95 0.0 0.0 0.00 0.02 0.02 78 3399.9
20260505202749 72 68 1.0 2.0 0.00 0.02 0.02 76 3399.9
20260505202244 72 115 1.0 2.0 0.00 0.02 0.02 76 3399.8
20260505201736 71 159 2.0 5.0 0.00 0.02 0.02 77 3399.8
20260505201233 71 177 5.0 5.0 0.00 0.02 0.02 78 3399.9
20260505200731 71 83 1.0 2.0 0.00 0.02 0.02 78 3400.0
20260505200228 71 96 2.0 2.0 0.00 0.02 0.02 78 3400.4
20260505195723 71 192 0.0 2.0 0.00 0.02 0.02 80 3400.5
20260505195221 71 120 3.0 3.0 0.00 0.02 0.02 79 3400.4
20260505194718 72 61 0.0 2.0 0.00 0.02 0.02 78 3400.7
20260505194214 71 136 1.0 3.0 0.00 0.02 0.02 81 3400.7
20260505193710 70 100 0.0 2.0 0.00 0.02 0.02 79 3400.9
20260505193208 71 140 0.0 0.0 0.00 0.02 0.02 79 3400.9
20260505192707 71 136 2.0 3.0 0.00 0.02 0.02 80 3400.9
20260505192203 70 100 0.0 2.0 0.00 0.02 0.02 81 3400.9
20260505191702 69 142 2.0 3.0 0.00 0.02 0.02 82 3401.0
20260505191200 68 88 2.0 3.0 0.00 0.02 0.02 82 3401.2
20260505190656 68 138 3.0 3.0 0.00 0.02 0.02 83 3401.0
20260505190155 68 63 1.0 3.0 0.00 0.02 0.02 84 3401.3
20260505185653 67 173 0.0 0.0 0.00 0.02 0.02 87 3401.5
20260505185149 67 63 2.0 2.0 0.00 0.02 0.02 89 3401.5
20260505184645 66 139 0.0 0.0 0.00 0.02 0.02 91 3401.6
20260505184142 65 137 0.0 0.0 0.00 0.02 0.02 93 3401.7
20260505183639 64 131 0.0 0.0 0.00 0.02 0.02 94 3401.7
20260505183137 63 85 0.0 0.0 0.00 0.02 0.02 94 3401.6
20260505182633 63 96 0.0 0.0 0.00 0.02 0.02 94 3401.9
20260505182130 63 98 0.0 0.0 0.00 0.02 0.02 94 3401.9
20260505181626 64 161 1.0 2.0 0.00 0.02 0.02 93 3402.0
20260505181124 64 119 0.0 0.0 0.05 0.02 0.02 93 3401.9
20260505180620 64 119 0.0 0.0 0.05 0.02 0.02 93 3402.2
20260505180118 64 120 0.0 0.0 0.00 0.01 0.01 93 3402.3
20260505175613 64 102 1.0 2.0 0.00 0.01 0.01 93 3402.3
20260505175110 64 91 1.0 2.0 0.00 0.01 0.01 92 3402.6
20260505174606 64 94 0.0 0.0 0.00 0.01 0.01 92 3402.6
20260505174102 64 83 0.0 0.0 0.00 0.01 0.01 92 3402.4
20260505173559 64 132 2.0 2.0 0.00 0.01 0.01 92 3402.3
20260505173056 64 146 1.0 2.0 0.00 0.01 0.01 91 3402.3
20260505172554 64 139 0.0 2.0 0.00 0.01 0.01 91 3402.4
20260505172051 64 93 0.0 0.0 0.00 0.01 0.01 91 3402.1
20260505171545 64 134 1.0 2.0 0.00 0.01 0.01 91 3402.1
20260505171042 64 84 0.0 0.0 0.00 0.01 0.01 91 3402.2
20260505170539 64 122 1.0 2.0 0.00 0.01 0.01 91 3402.4
20260505170036 64 115 0.0 0.0 0.00 0.01 0.01 91 3402.2
20260505165531 64 93 0.0 0.0 0.00 0.01 0.01 92 3402.2
20260505165026 63 93 0.0 0.0 0.00 0.01 0.01 91 3402.1
20260505164523 63 113 0.0 0.0 0.00 0.01 0.01 91 3402.0
20260505164021 64 134 0.0 0.0 0.00 0.01 0.01 90 3402.3
20260505163519 64 103 0.0 2.0 0.07 0.01 0.01 89 3402.8
20260505163016 65 123 0.0 0.0 0.07 0.01 0.01 89 3402.4
20260505162509 65 143 1.0 2.0 0.07 0.01 0.01 87 3402.7
20260505162006 65 130 0.0 0.0 0.00 0.00 0.00 85 3402.9
20260505161502 65 130 1.0 2.0 0.00 0.00 0.00 82 3402.7